Weather History for KCEZ - September, 2011

Change the Weather History Date:

Friday, September 2, 2011

  Actual Average Record
Temperature  
Mean Temperature 70 °F 65 °F  
Max Temperature 88 °F 82 °F 91 °F (2014)
Min Temperature 53 °F 48 °F 41 °F (2010)
Degree Days  
Heating Degree Days 0 2  
Month to date heating degree days 3  
Since 1 July heating degree days 15  
Cooling Degree Days 6 2  
Month to date cooling degree days 4  
Year to date cooling degree days 413  
Growing Degree Days 20 (Base 50)    
Moisture  
Dew Point 47 °F    
Average Humidity 53    
Maximum Humidity 93    
Minimum Humidity 15    
Precipitation  
Precipitation 0.00 in 0.04 in 0.50 in (1999)
Month to date precipitation 0.09  
Year to date precipitation 8.53  
Sea Level Pressure  
Sea Level Pressure 29.94 in    
Wind  
Wind Speed 7 mph (NNE)    
Max Wind Speed 14 mph    
Max Gust Speed 17 mph    
Visibility 10 miles    
Events Rain    
T = Trace of Precipitation, MM = Missing Value Source: NWS Daily Summary

Daily Weather History Graph

Daily Weather History Graph

Search for Another Location

Airport or City:

Trip Planner

Search our weather history database for the weather conditions in past years. The results will help you decide how hot, cold, wet, or windy it might be!

Date:

Astronomy

Sep. 02, 2011 Rise Set
Actual Time 6:45 AM MDT 7:42 PM MDT
Civil Twilight 6:19 AM MDT 8:08 PM MDT
Nautical Twilight 5:47 AM MDT 8:40 PM MDT
Astronomical Twilight 5:14 AM MDT 9:12 PM MDT
Moon 12:12 PM MDT (9/2) 10:28 PM MDT (9/2)
Length of Visible Light 13h 49m
Length of Day
12h 56m
Waxing Crescent, 28% of the Moon is Illuminated
Sep 2
Waxing Crescent
Sep 4
First Quarter
Sep 12
Full
Sep 20
Last Quarter
Sep 27
New

Hourly Weather History & Observations

Time (MDT) Temp. Heat Index Dew Point Humidity Pressure Visibility Wind Dir Wind Speed Gust Speed Precip Events Conditions
1:53 AM 63.0 °F - 55.0 °F 75% 29.93 in 10.0 mi ESE 13.8 mph - 0.00 in Rain Light Rain
2:53 AM 61.0 °F - 54.0 °F 78% 29.92 in 10.0 mi North 3.5 mph - 0.00 in   Clear
3:53 AM 57.0 °F - 53.1 °F 87% 29.94 in 10.0 mi SE 3.5 mph - N/A   Scattered Clouds
4:53 AM 55.0 °F - 52.0 °F 89% 29.99 in 10.0 mi Calm Calm - N/A   Partly Cloudy
5:53 AM 53.1 °F - 51.1 °F 93% 29.99 in 10.0 mi ENE 5.8 mph - N/A   Clear
6:53 AM 53.1 °F - 50.0 °F 89% 30.01 in 10.0 mi ENE 5.8 mph - N/A   Clear
7:53 AM 57.9 °F - 51.1 °F 78% 30.01 in 10.0 mi East 4.6 mph - N/A   Clear
8:53 AM 66.0 °F - 52.0 °F 60% 30.00 in 10.0 mi Calm Calm - N/A   Clear
9:53 AM 72.0 °F - 52.0 °F 49% 29.98 in 10.0 mi Calm Calm - N/A   Clear
10:53 AM 75.0 °F - 52.0 °F 44% 29.98 in 10.0 mi SW 6.9 mph - N/A   Clear
11:53 AM 80.1 °F 79.9 °F 53.1 °F 39% 29.94 in 10.0 mi SW 12.7 mph - N/A   Clear
1:53 PM 82.9 °F - 50.0 °F 32% 29.90 in 10.0 mi SSW 6.9 mph - N/A   Clear
3:53 PM 88.0 °F - 35.1 °F 15% 29.87 in 10.0 mi NW 12.7 mph 17.3 mph N/A   Clear
4:53 PM 87.1 °F - 35.1 °F 16% 29.87 in 10.0 mi WNW 10.4 mph - N/A   Clear
5:53 PM 86.0 °F - 35.1 °F 16% 29.87 in 10.0 mi WNW 10.4 mph - N/A   Clear
6:53 PM 84.0 °F - 37.0 °F 19% 29.87 in 10.0 mi WNW 9.2 mph - N/A   Clear
8:53 PM 66.0 °F - 44.1 °F 45% 29.90 in 10.0 mi Calm Calm - N/A   Clear
9:53 PM 63.0 °F - 42.1 °F 46% 29.90 in 10.0 mi NE 8.1 mph - N/A   Clear
10:53 PM 61.0 °F - 39.9 °F 46% 29.91 in 10.0 mi ENE 6.9 mph - N/A   Clear